{"data":{"norad_id":55345,"epoch":"2026-05-25T05:19:33.664224Z","epoch_age_seconds":66170,"freshness":"FRESH","line1":"1 55345U 23013Q   26145.22191741 -.00001442  00000+0 -42926-4 0  9995","line2":"2 55345  43.0027 216.8334 0001204 277.5321  82.5393 15.27563939183542","mean_motion":15.27563939,"eccentricity":0.0001204,"inclination_deg":43.0027,"raan_deg":216.8334,"arg_perigee_deg":277.5321,"mean_anomaly_deg":82.5393,"bstar":-4.2926e-5,"rev_number":18354,"period_min":94.267739846142,"perigee_km":482.2710962766,"apogee_km":483.92328146928,"semimajor_km":6861.2341888729,"source":"CELESTRAK","updated_at":"2026-05-25T13:38:17.762438Z"}}